Torna al catalogo

COSMOS 1375 DEB

AttivoLEO
NORAD 16378·DEBRIS·🇷🇺 Russia

Lanciato Jun 6, 1982 da Plesetsk Cosmodrome

Loading…

Prossimi Passaggi (prossime 24 ore)

TLE

AggiornatoSource: Space-Track

Epoca: Sep 14, 2026, 08:39 UTC

1 16378U 82055S   26257.36063433  .00000008  00000-0  83553-4 0  9991
2 16378  65.8309 229.3020 0024803 133.8051  17.4375 13.81704325 60641

Traccia COSMOS 1375 DEB in tempo reale con AllMySat

Download on the App Store